COSMOS 2499 DEB, 55717

Orbit data source: Space-Track

COSMOS 2499 DEB, 55717 is space debris in LEO originally from a launch on Fri, 23 May 2014 UTC launched from the Plesetsk Missile And Space Complex (PKMTR). Debris objects in space refer to the collection of defunct objects orbiting the Earth. Examples of debris include non-operational satellites, rocket bodies, and fragments generated from explosions, collisions, or faulty payload assembly.

Loading next visibility...
Identifier
55717, 2014-028AD
Orbit
LEO
Country
Flag of CISCIS
Related business
Manufacturer
TsNIIKhM
Mission
Spacecraft
Bus & Motor
Unknown
Mass
Unknown
Launch date (UTC)
2014-05-23 (12 years ago)
Launch vehicle
Unknown
Launch site
Plesetsk Missile And Space Complex (PKMTR)
Object type
Payload
Rocket body
Debris
Shape & HBR
Unknown shape, 0.1 m
Radar Cross Section
Small (<0.1 m²)

Expand to show TLE details & history
Last TLE update: 2 weeks ago

TLE from 2 weeks ago
0 COSMOS 2499 DEB
1 55717U 14028AD  25336.40115758  .00001664  00000-0  59959-2 0  9996
2 55717  82.3661  16.3641 0212219 104.2262 258.2515 12.86773455135878
Epoch: 2025-12-02T09:37Z
TLE epoch observation values (Epoch: 2025-12-02T09:37:40.014Z)
Latitude
-0.00009°
Longitude
160.46053°
Altitude
1,353.664 km
Speed
7.164 km/s
True Right ascension
01h 05m 27s
True Declination
0° 00' 00"
Sunlit
Object was in partial shadow at epoch
Visualization orbit readout
Latitude
Unknown
Longitude
Unknown
Altitude
Unknown
Speed
Unknown
Apparent Right ascension
Unknown
Apparent Declination
Unknown
Sunlit
N/A
Visualization observer readout
Local Sidereal Time
11:09:58
Azimuth
Unknown
Elevation
Unknown
Doppler factor
Unknown
Orbital elements
Apogee altitude
1,474.84 km
Perigee altitude
1,148.457 km
Semi-major axis
7,689.786 km
Eccentricity
0.02122
Inclination
82.3661°
RAAN
16.3641°
Arg. of periapsis
104.2262°
True anomaly
255.88406°
Mean anomaly
258.2515°
Eccentric anomaly
257.06642°
Mean motion
3.21864 °/min
Orbital period
111.85 mins
BSTAR
0.0059959
Loading maneuver chart data...
Computing Atmospheric mass density...
Loading historical data...
Loading historical data...
Loading historical data...
Loading historical data...
Loading historical data...
Loading historical data...
Loading historical data...

Documentation

Showing up to 5 results
|